Regional Weather Roundup
Issued by NWS

Home | Current Version | Previous Version | Graphics & Text | Print | Product List | Glossary On
Versions: 1 2 3 4 5 6 7 8 9 10 11 12 13 14 15 16 17 18 19 20 21 22 23 24 25 26 27 28 29 30 31 32 33 34 35 36 37 38 39 40 41 42 43 44 45 46 47 48 49 50
000
ASUS45 KPSR 030500
RWRAZ

ARIZONA HOURLY REGIONAL WEATHER ROUNDUP
NATIONAL WEATHER SERVICE PHOENIX AZ
1000 PM MST TUE JUN 02 2015

NOTE: FAIR INDICATES FEW OR NO CLOUDS BELOW 12,000 FEET WITH NO
SIGNIFICANT WEATHER AND/OR OBSTRUCTIONS TO VISIBILITY.

AZZ001>003-036-030600-
NORTHWEST ARIZONA

CITY           SKY/WX    TMP DP  RH WIND       PRES   REMARKS
KINGMAN        CLEAR     72  16  12 S9        29.92R
$$

AZZ004>008-015-016-018-030600-
NORTH CENTRAL ARIZONA

CITY           SKY/WX    TMP DP  RH WIND       PRES   REMARKS
GRAND CANYON   CLEAR     43  17  35 CALM      30.13R
PRESCOTT       CLEAR     64  23  21 CALM      30.05R
FLAGSTAFF      NOT AVBL
PAGE           CLEAR     81  12   7 W7        29.91R
$$

AZZ009>014-017-030600-
NORTHEAST ARIZONA

CITY           SKY/WX    TMP DP  RH WIND       PRES   REMARKS
WINSLOW        NOT AVBL
SAINT JOHNS    CLEAR     68  19  15 SW13      30.09R
WINDOW ROCK    CLEAR     57  21  24 CALM      30.15R
$$

AZZ023-030600-
GREATER PHOENIX AREA

CITY           SKY/WX    TMP DP  RH WIND       PRES   REMARKS
PHOENIX        CLEAR     93  18   6 W12       29.78R
LUKE AFB       CLEAR     87  19   8 SW5       29.78R
DEER VALLEY    CLEAR     84  15   7 CALM      29.81R
SCOTTSDALE     CLEAR     86  25  11 CALM      29.82R
MESA-GATEWAY   CLEAR     88  25  10 W9        29.82R
$$

AZZ027-028-030600-
SOUTHWEST MARICOPA COUNTY AND PINAL COUNTY

CITY           SKY/WX    TMP DP  RH WIND       PRES   REMARKS
CASA GRANDE    CLEAR     86  25  10 W6        29.82R
$$

AZZ503-504-507>509-030600-
SOUTHEAST ARIZONA

CITY           SKY/WX    TMP DP  RH WIND       PRES   REMARKS
TUCSON         CLEAR     87  29  12 W9        29.94R
DAVIS-MONTHAN  CLEAR     86  30  13 SW7       29.93R
NOGALES        CLEAR     76  22  13 SE6       30.05R
SIERRA VISTA   CLEAR     77  17  10 W14G21    30.10R
SAFFORD        PTCLDY    82  30  15 W12       29.90R
$$

AZZ020-021-025-026-031-030600-
SOUTHWEST ARIZONA

CITY           SKY/WX    TMP DP  RH WIND       PRES   REMARKS
YUMA           NOT AVBL
$$

CAZ031-033-041-043-047-048-061-030600-
SOUTHERN CALIFORNIA

CITY           SKY/WX    TMP DP  RH WIND       PRES   REMARKS
DOWNTOWN L.A.  PTCLDY    63  58  83 CALM      29.95R
L.A. AIRPORT   PTCLDY    61  58  90 W6        29.96R
SAN DIEGO      MOCLDY    63  55  75 W6        29.98S
BURBANK        CLEAR     65  56  72 SE7       29.94R
ONTARIO        CLEAR     64  55  72 W10       29.94R
RIVERSIDE      CLEAR     65  56  72 W5        29.95R
PALM SPRINGS   CLEAR     85  38  18 NW14      29.77R
EL CENTRO NAS  CLEAR     81  27  14 W22       29.78R
IMPERIAL       LGT RAIN  80  31  16 W24       29.74R
BLYTHE         CLEAR     86  35  16 S15       29.74R
$$

NVZ020-UTZ003-030600-
SOUTHERN NEVADA-UTAH

CITY           SKY/WX    TMP DP  RH WIND       PRES   REMARKS
LAS VEGAS      NOT AVBL
SALT LAKE CITY PTCLDY    69  45  41 SE7       29.91R
$$

NMZ009-TXZ055-030600-
NEW MEXICO-WEST TEXAS

CITY           SKY/WX    TMP DP  RH WIND       PRES   REMARKS
ALBUQUERQUE    CLEAR     71  26  18 CALM      30.02R
EL PASO        CLEAR     87  17   7 W3        29.94R
$$


........................KEY........................
SKY/WX - SKY CONDITION/WEATHER
TMP    - TEMPERATURE IN FAHRENHEIT
DP     - DEW POINT IN FAHRENHEIT
RH     - RELATIVE HUMIDITY IN PERCENT
WIND   - DIRECTION AND SPEED IN MILES PER HOUR (MPH)
VRB    - VARIABLE WIND DIRECTION
PRES   - MEAN SEA LEVEL PRESSURE IN INCHES OF MERCURY
         F - FALLING PRESSURE   R - RISING PRESSURE
         S - STEADY PRESSURE
VSB    - VISIBILITY IN MILES
HX     - HEAT INDEX IN FAHRENHEIT
WCI    - WIND CHILL INDEX IN FAHRENHEIT
TC     - TEMPERATURE IN CELSIUS WHICH IS ALSO KNOWN AS
         TEMPERATURE IN CENTIGRADE
AFB    - AIR FORCE BASE
         LUKE AFB IS LUKE AIR FORCE BASE
         DAVIS-MONTHAN IS DAVIS-MONTHAN AIR FORCE BASE
NAS    - NAVAL AIR STATION
         EL CENTRO NAS IS EL CENTRO NAVAL AIR STATION
N/A    - NOT AVAILABLE




USA.gov is the U.S. government's official web portal to all federal, state and local government web resources and services.